Погода в Зюндерте

Нидерланды     51°28′13″N   4°39′39″E
темп.,
°C
ветер,
м/с
пор.,
м/с
влажн.,
%
обл.,
%
осадки,
мм/ч
давл.,
гПа
погр.,
м
23 июня, ср
ср2323:00+12ссв4989100 3.6 1020430
02:00+11ссв3894100 4.6 1020383
05:00+11ссв4894100 0.0 1020369
08:00+11ссв3791100 0.1 1021332
11:00+15ссв457161 0.0 1022846
14:00+17ссв446370 0.0 10221097
17:00+16ссв346999 0.0 1022750
20:00+15с357678 0.0 1022373
24 июня, чт
чт2423:00+12ссв368614 0.0 1022115
02:00+10ссв36935 0.0 1022118
05:00+10ссв349517 0.0 102281
08:00+13ссв35829 0.0 1022281
11:00+17ссв33665 0.0 1021798
14:00+19ссз225998 0.0 10211375
17:00+20ссз225597 0.0 10201462
20:00+17сз576231 0.0 1020395
25 июня, пт
пт2523:00+11сз34660 0.0 102155
02:00+9з22670 0.0 102010
05:00+8юз337055 0.0 101926
08:00+13ююз467373 0.0 1019225
11:00+16юз467898 0.0 1018532
14:00+16ююз4780100 0.0 1018462
17:00+17юз467993 0.0 1018770
20:00+15зюз3793100 0.1 1018399
26 июня, сб
сб2623:00+14юз1197100 0.0 101940
02:00+14ююз1197100 0.0 101928
05:00+13ю2294100 0.0 101940
08:00+13юв1296100 0.9 101949
11:00+17юв2383100 0.1 1019447
14:00+19сз1173100 0.2 1019513
17:00+21ссв326777 0.6 1018935
20:00+20св247698 0.9 1017259
27 июня, вс
вс2723:00+17св3885100 0.1 1017190
02:00+15св4109159 0.1 1016224
05:00+14всв3695100 0.0 1015109
08:00+18в4680100 0.0 1015211
11:00+23в5664100 0.0 1014712
14:00+21св2275100 0.6 101424
17:00+18ююз3593100 4.8 1014137
20:00+17зюз2399100 9.3 1015161